Location: ?????
(31.8092°N, 35.2590°E)
Time: 07:28:04
(UTC+00:00)

Daily predictions for brighter satellites

Satellite Brightness Start Highest point End
(mag) Time Altitude Azimuth Time Altitude Azimuth Time Altitude Azimuth
Cosmos 1420 Rocket 4.0 17:07:58 10° SSW 17:13:07 89° ESE 17:18:21 10° NNE
Cosmos 2285 Rocket 4.1 17:09:26 10° S 17:15:49 76° ESE 17:22:16 10° NNE
FALCON 9 DEB 3.4 17:13:32 10° SSW 17:16:24 36° SE 17:19:18 10° ENE
Cosmos 2360 Rocket 2.9 17:12:50 10° SSE 17:17:44 31° ESE 17:22:39 10° NE
Okean-O 3.9 17:14:49 10° S 17:18:59 41° W 17:23:11 10° NNW
Cosmos 1190 Rocket 4.1 17:14:45 10° N 17:20:03 67° ENE 17:25:19 10° SSE
SL-16 R/B 2.2 17:15:50 10° SSW 17:21:30 88° ESE 17:27:12 10° NNE
Cosmos 2322 Rocket 2.2 17:15:57 10° S 17:21:34 66° ESE 17:27:13 10° NNE
Cosmos 1339 Rocket 4.5 17:21:00 10° S 17:27:10 74° E 17:33:16 10° N
Okean 2 Rocket 3.4 17:26:40 10° N 17:31:10 75° W 17:35:40 10° S
FALCON 9 DEB 2.9 17:29:09 10° SW 17:32:13 80° NW 17:35:19 10° NE
Cosmos 1674 4.4 17:31:47 12° ESE 17:33:33 15° E 17:35:47 10° NE
Okean 2 3.3 17:30:23 10° S 17:34:27 80° E 17:38:31 10° N
PEGASUS R/B 4.4 17:31:58 10° SSE 17:34:50 75° WSW 17:39:39 10° NNW
Cosmos 1842 4.1 17:31:22 10° SSW 17:35:12 55° W 17:39:05 10° N
Cosmos 1975 Rocket 4.3 17:32:39 11° SE 17:35:52 22° E 17:39:16 10° NE
Cosmos 1726 2.8 17:33:50 10° NNE 17:37:12 35° E 17:40:00 13° SE
Cosmos 1400 Rocket 3.4 17:33:44 10° NNW 17:37:30 55° W 17:41:17 10° S
OBJECT-B 0.8 17:34:25 10° S 17:37:36 83° W 17:40:48 10° NNW
ASTRO E2 2.7 17:35:12 10° WSW 17:39:07 64° SSE 17:43:03 10° E
FALCON 9 DEB 2.8 17:36:54 10° SW 17:40:00 88° ESE 17:43:06 10° NE
ATLAS 2A CENTAUR R/B 4.3 17:11:38 10° SW 17:40:01 43° S 17:46:48 12° ESE
Cosmos 2227 4.2 17:34:41 10° NNW 17:40:17 68° ENE 17:45:33 12° SSE
Cosmos 1674 Rocket 4.3 17:37:12 10° SSW 17:41:32 57° W 17:45:50 10° N
Cosmos 2151 Rocket 3.8 17:37:16 10° N 17:41:39 73° W 17:46:01 10° S
USA 186 2.7 17:39:51 10° S 17:42:28 40° W 17:45:17 10° NNW
FALCON 9 DEB 3.4 17:39:40 10° SW 17:42:43 63° NW 17:45:47 10° NE
Cosmos 1953 4.5 17:42:13 10° NE 17:43:34 11° ENE 17:44:40 10° E
MOS 1 4.5 17:38:23 10° SSE 17:43:56 58° ENE 17:49:31 10° N
Ariane Rocket 3.2 17:40:51 11° SSE 17:45:35 53° ENE 17:50:34 10° N
COSMOS 2428 4.2 17:45:21 14° ESE 17:46:50 15° E 17:50:03 10° ENE
Resurs 01 Rocket 2.7 17:44:36 15° ESE 17:47:24 29° ENE 17:51:11 10° NNE
Yuri Rocket 4.2 17:42:15 10° WSW 17:47:34 50° SSE 17:54:54 10° E
Lacrosse 5 2.2 17:42:46 10° NNW 17:47:44 53° NE 17:51:28 17° ESE
SL-24 DEB 4.3 17:44:45 10° S 17:49:28 87° W 17:54:15 10° N
Cosmos 2237 4.2 17:45:21 10° SSW 17:51:02 85° ESE 17:56:45 10° NNE
Cosmos 1954 Rocket 4.0 17:46:25 10° NNW 17:51:45 81° ENE 17:56:28 13° SSE
Cosmos 676 Rocket 4.0 17:48:23 10° NNW 17:53:44 82° ENE 17:58:23 14° SSE
Cosmos 1844 Rocket 4.3 17:52:02 10° NNE 17:56:10 20° ENE 17:59:10 14° E
Cosmos 1470 2.7 17:59:05 10° N 18:03:03 87° W 18:06:09 16° S
IRS-1A Rocket 4.4 18:00:39 12° SSE 18:06:14 89° WSW 18:12:04 10° NNW
Cosmos 1110 Rocket 3.9 18:03:22 10° S 18:08:28 69° ESE 18:13:38 10° NNE
In-Cosmos 22 4.0 18:04:51 10° S 18:10:07 87° E 18:15:25 10° N
Cosmos 2263 Rocket 2.9 18:05:31 10° NNW 18:11:02 52° WSW 18:16:11 12° S
ATLAS 3B R/B 2.5 18:09:07 10° SSW 18:15:32 67° ESE 18:22:06 10° NE
Meteor 2-20 Rocket 4.4 18:11:16 10° S 18:17:23 89° E 18:23:31 10° N
Cosmos 1626 2.7 18:20:35 34° E 18:20:46 34° E 18:24:08 10° NNE
Cosmos 2100 Rocket 4.4 18:17:13 10° N 18:23:15 44° E 18:26:04 28° SE
Cosmos 2333 4.1 18:18:24 10° S 18:24:06 69° ESE 18:29:48 10° NNE
ARIANE 5 R/B 4.1 18:23:29 20° E 18:24:14 21° ENE 18:27:35 10° NNE
Cosmos 1908 4.1 18:21:55 10° NNE 18:25:24 31° E 18:25:37 31° E
USA 81 4.0 18:22:49 10° N 18:28:06 89° E 18:31:22 24° S
IGS 5A 3.4 18:26:34 33° SSE 18:28:22 88° E 18:32:33 10° N
Cosmos 1455 Rocket 3.4 18:24:55 10° N 18:29:14 47° E 18:30:17 39° ESE
Okean 1 Rocket 4.2 18:25:49 10° NNW 18:29:57 42° W 18:33:29 14° SSW
Cosmos 1315 Rocket 4.1 18:30:52 10° NNW 18:34:41 38° W 18:37:23 17° SSW
Cosmos 2173 Rocket 4.2 18:30:11 10° N 18:36:25 54° E 18:39:00 34° SE
Meteor 2-5 Rocket 4.4 18:36:18 30° ESE 18:36:58 31° E 18:41:48 10° NNE
Cosmos 2219 Rocket 2.2 18:33:30 22° S 18:37:08 60° ESE 18:42:43 10° NNE
Delta 128 4.3 18:33:58 10° W 18:37:59 33° SSW 18:38:16 33° S
Cosmos 2333 Rocket 2.1 18:32:34 11° SSW 18:38:08 75° ESE 18:43:52 10° NNE
Cosmos 1461 3.4 18:34:39 10° NNW 18:38:33 41° ENE 18:39:03 39° E
ATLAS CENTAUR R/B 3.4 18:38:11 10° N 18:41:20 19° NE 18:42:13 18° ENE
SL-4 R/B 1.9 18:38:08 10° SW 18:42:33 79° SE 18:46:38 10° NE
ERS-1 Rocket 4.0 18:44:08 28° E 18:44:51 29° ENE 18:49:10 10° NNE
Cosmos 1025 Rocket 2.9 18:46:53 46° S 18:48:11 89° E 18:52:33 10° N
Spot 2 Rocket 3.8 18:48:19 43° ESE 18:49:21 50° ENE 18:54:15 10° N
Cosmos 1536 Rocket 4.0 18:51:05 45° E 18:51:05 45° E 18:55:08 10° NNE
Cosmos 1850 Rocket 4.0 18:46:16 10° NNW 18:51:32 78° WSW 18:53:17 43° S
USA 215 4.0 18:46:31 10° ENE 18:50:57 30° ESE 18:50:57 30° ESE
Cosmos 1844 4.0 18:47:26 10° N 18:52:52 51° ENE 18:54:09 43° ESE
Cosmos 1725 Rocket 4.5 18:48:51 10° N 18:54:38 40° E 18:55:46 37° ESE
Cosmos 2237 Rocket 3.8 19:00:13 19° ENE 19:00:13 19° ENE 19:02:34 10° NE
SPOT 1/Viking Rocket 3.5 19:00:03 48° S 19:01:31 79° WSW 19:06:40 10° NNW
Cosmos 2360 Rocket 4.1 18:56:51 10° WSW 19:01:38 28° WNW 19:06:26 10° N
Terra 3.0 19:02:26 29° ENE 19:02:26 29° ENE 19:06:23 10° NNE
CARTOSAT-1 3.5 19:03:11 65° ENE 19:03:11 65° ENE 19:07:26 10° N
SL-14 R/B 3.3 19:06:07 80° N 19:06:07 80° N 19:09:58 10° N
Meteor 1-24 Rocket 3.8 19:09:16 50° E 19:09:16 50° E 19:14:27 10° NNE
SPOT 5 3.2 19:09:02 52° E 19:09:20 53° ENE 19:14:10 10° N
USA 245 4.1 19:11:02 54° SSW 19:11:58 68° W 19:17:31 10° NNW
Meteor 2-11 Rocket 4.3 19:06:38 10° N 19:12:45 85° W 19:14:27 50° S
Cosmos 1302 Rocket 4.3 19:10:59 28° SW 19:13:41 63° WNW 19:18:54 10° N
Cosmos 1802 Rocket 3.9 19:09:00 10° N 19:15:20 90° E 19:17:06 51° S
Cosmos 1459 Rocket 4.1 19:10:58 10° NNW 19:16:59 69° W 19:19:00 43° SSW
ASTRO E2 3.8 19:15:30 10° W 19:18:00 37° W 19:18:00 37° W
Cosmos 1953 3.5 19:16:19 10° NNW 19:20:03 36° W 19:20:21 36° WSW
Resurs 01 Rocket 3.8 19:22:11 15° WSW 19:23:51 19° W 19:26:57 10° NW
Lacrosse 5 3.8 19:26:56 10° WNW 19:30:17 18° WSW 19:30:41 18° WSW
COSMOS 2428 3.3 19:27:15 25° SW 19:30:31 56° WNW 19:36:10 10° N
Cosmos 1340 4.3 19:32:47 30° WNW 19:32:47 30° WNW 19:36:03 10° NNW
Cosmos 1300 4.1 19:29:07 10° N 19:31:23 34° N 19:31:23 34° N
NOSS 0 Rocket 3.7 19:34:04 72° SE 19:34:23 74° ESE 19:40:37 10° NNE
Cosmos 2278 Rocket 3.7 19:34:29 10° N 19:38:58 24° ENE 19:39:05 24° ENE
Cosmos 1844 Rocket 3.3 19:34:51 10° NW 19:40:13 45° WSW 19:40:50 44° WSW
Yuri Rocket 4.3 19:38:22 10° W 19:45:03 69° S 19:46:19 61° SE
Cosmos 968 Rocket 3.9 19:49:18 10° N 19:53:29 56° NNE 19:53:29 56° NNE
Cosmos 2061 Rocket 4.5 19:50:36 10° NNW 19:56:47 53° W 19:57:52 47° WSW
Cosmos 1992 Rocket 4.3 19:57:54 61° WNW 19:57:54 61° WNW 20:02:49 10° N
ARIANE 5 R/B 4.4 20:01:01 26° W 20:01:01 26° W 20:04:15 10° NW
Cosmos 1447 Rocket 4.4 20:00:15 78° WSW 20:00:29 79° W 20:06:42 10° N
Cosmos 2233 Rocket 3.8 19:54:50 10° N 20:01:00 86° W 20:01:00 86° W
Meteor 2-10 Rocket 4.1 19:57:42 10° N 20:01:28 50° NNE 20:01:28 50° NNE
ATLAS CENTAUR R/B 3.4 20:10:24 46° NE 20:10:24 46° NE 20:16:33 10° NE
Cosmos 1980 3.9 20:09:27 67° NW 20:09:27 67° NW 20:14:41 10° NNE
ATLAS CENTAUR R/B 3.4 20:16:05 10° NW 20:18:22 26° WNW 20:18:22 26° WNW
USA 215 3.8 20:28:59 10° NNE 20:35:20 55° NW 20:38:12 32° WSW
SL-16 R/B 3.4 20:42:05 34° NE 20:42:05 34° NE 20:45:19 10° NNE
Terra 3.9 20:41:19 20° WNW 20:41:19 20° WNW 20:43:40 10° NW
Cosmos 2237 Rocket 3.3 20:41:58 38° WNW 20:42:02 38° WNW 20:47:14 10° N
Cosmos 1464 Rocket 4.3 20:44:22 10° N 20:49:44 65° N 20:49:44 65° N
Cosmos 2278 Rocket 3.8 21:17:54 10° NW 21:20:55 28° WNW 21:20:55 28° WNW
SJ 16-02 3.8 21:39:03 10° N 21:40:30 20° N 21:40:30 20° N
Cosmos 1943 Rocket 3.3 21:43:43 10° N 21:47:23 39° NNE 21:47:23 39° NNE
USA 229 DEB 4.0 21:51:22 55° NNW 21:51:22 55° NNW 21:57:04 10° NNE
USA 229 4.0 21:51:30 55° NNW 21:51:30 55° NNW 21:57:11 10° NNE
Cosmos 1943 4.5 21:54:57 34° NE 21:54:57 34° NE 21:58:13 10° NNE
CZ-2D R/B 4.5 21:57:45 10° ENE 21:59:03 13° ENE 21:59:03 13° ENE
NOSS 3-1 (A) 4.4 22:11:32 36° NNW 22:11:32 36° NNW 22:15:59 10° NNE
SL-16 R/B 4.4 22:23:55 15° WNW 22:24:14 15° WNW 22:27:31 10° NNW
Cosmos 2369 Rocket 2.9 22:37:30 10° NNW 22:41:39 50° N 22:41:39 50° N
ATLAS 5 CENTAUR R/B 3.8 22:47:38 20° NNE 22:47:38 20° NNE 22:49:02 10° NNE
USA 267 3.2 22:46:53 81° N 22:46:53 81° N 22:53:07 10° NW
Cosmos 2098 Rocket 4.4 22:59:51 46° NNW 22:59:51 46° NNW 23:03:10 10° N
Cosmos 2221 4.4 23:01:56 10° N 23:03:52 26° N 23:03:52 26° N
Nadezhda 4 Rocket 4.4 23:10:11 49° NW 23:10:11 49° NW 23:15:20 10° N
Cosmos 2026 Rocket 4.1 23:10:41 69° E 23:10:43 69° E 23:17:00 10° NNE
Resurs 1-4 Rocket 2.4 23:13:52 10° N 23:18:22 64° N 23:18:22 64° N
Helios 1B rocket 3.9 23:19:51 10° NNE 23:22:14 34° NNE 23:22:14 34° NNE
ADEOS II 2.5 23:23:53 10° NNE 23:28:56 53° E 23:28:56 53° E
NPP 3.7 23:30:26 10° N 23:35:26 69° NW 23:35:26 69° NW
CZ-2D R/B 2.6 23:35:55 10° N 23:40:22 47° NW 23:40:22 47° NW
Meteor 2-3 Rocket 3.6 23:41:21 82° SE 23:41:30 84° E 23:47:06 10° N
IDEFIX/ARIANE 42P 3.7 23:37:01 10° NNE 23:41:45 34° E 23:42:44 32° ESE
SL-16 R/B 2.4 23:46:03 70° SSW 23:46:39 76° WSW 23:52:51 10° NNW
Lacrosse 4 Rocket 2.3 23:43:24 10° NNW 23:46:46 45° NE 23:46:46 45° NE
Aureole 3 Rocket 3.9 23:44:27 10° NNW 23:48:22 55° WNW 23:48:22 55° WNW
UNK 4.2 23:51:07 50° NW 23:51:07 50° NW 23:54:39 10° NNW
